TLV R/B, 58501

Orbit data source: Space-Track

TLV R/B, 58501 is space debris in LEO originally from a launch on Mon, 04 Dec 2023 UTC launched from the Jeju Sea Launch Area (JJSLA). Debris objects in space refer to the collection of defunct objects orbiting the Earth. Examples of debris include non-operational satellites, rocket bodies, and fragments generated from explosions, collisions, or faulty payload assembly.

Loading next visibility...
Identifier
58501, 2023-188B
Orbit
LEO
Country
Flag of KRKR / SKOR
Related business
Manufacturer
Hanwha
Mission
Spacecraft
Bus & Motor
GYUB4, Unknown motor
Mass
~100 kg wet, ~100 kg dry
Launch date (UTC)
2023-12-04 (3 years ago)
Launch vehicle
Unknown
Launch site
Jeju Sea Launch Area (JJSLA)
Object type
Payload
Rocket body
Debris
Shape & HBR
Cyl, 0.9 m
Radar Cross Section
1.806 m², Large (>1 m²)

Expand to show TLE details & history
Last TLE update: 2 days ago

TLE from 2 days ago
0 TLV R/B
1 58501U 23188B   26171.16244104  .00006468  00000-0  19502-3 0  9994
2 58501  46.9309 331.5428 0108135  39.1216 321.7454 15.29828692141271
Epoch: 2026-06-20T03:53Z
TLE epoch observation values (Epoch: 2026-06-20T03:53:54.905Z)
Latitude
-0.00003°
Longitude
4.68298°
Altitude
418.65 km
Speed
7.694 km/s
True Right ascension
22h 06m 10s
True Declination
0° 00' 00"
Sunlit
Object was in full shadow at epoch
Visualization orbit readout
Latitude
Unknown
Longitude
Unknown
Altitude
Unknown
Speed
Unknown
Apparent Right ascension
Unknown
Apparent Declination
Unknown
Sunlit
N/A
Visualization observer readout
Local Sidereal Time
21:39:45
Azimuth
Unknown
Elevation
Unknown
Doppler factor
Unknown
Orbital elements
Apogee altitude
551.745 km
Perigee altitude
403.476 km
Semi-major axis
6,855.747 km
Eccentricity
0.01081
Inclination
46.9309°
RAAN
331.5428°
Arg. of periapsis
39.1216°
True anomaly
320.96998°
Mean anomaly
321.7454°
Eccentric anomaly
321.35851°
Mean motion
3.8235 °/min
Orbital period
94.15 mins
BSTAR
0.00019502
Loading maneuver chart data...
Computing Atmospheric mass density...
Loading historical data...
Loading historical data...
Loading historical data...
Loading historical data...
Loading historical data...
Loading historical data...
Loading historical data...
Other satellites on launch #188 in the year 2023 (2023-12-04 UTC)

Documentation

Showing up to 5 results
|